Wind_Speed
5 4 4 4 4 4 4 4 4 5 6 7 8 9 10 10 11 11 11 13 15 16 18 18 19 19 18 15 12 11 11 9 7 8 10 10 11 12 13 12 11 11 11 11 10 9 7 6 5 5 6 6 5 6 6 6 5 5 6 7 8 9 9 10 11 10 10 12 14 17 19 21 25 27 27 28 27 25 22 21 20 20 20 19 18 18 18 19
6 6 6 6 6 6 6 6 6 7 7 8 9 10 10 11 11 11 11 11 13 14 15 17 17 18 17 16 13 11 10 9 7 7 8 9 11 13 14 14 13 12 13 13 12 11 11 9 8 6 5 5 5 6 6 6 5 5 6 6 8 11 12 13 14 14 14 15 17 19 22 24 26 27 28 27 27 25 23 22 22 22 22 21 20 20 20 20
8 8 8 8 8 8 9 9 9 9 9 10 10 11 11 11 11 11 11 10 11 12 13 15 15 16 16 16 14 11 10 9 8 7 8 9 10 12 13 14 14 13 14 14 14 15 14 12 11 10 8 7 6 6 6 5 5 5 5 6 8 11 14 15 16 17 17 19 21 22 25 27 27 27 28 28 26 24 23 23 23 23 23 22 22 21 21 22
8 9 9 10 10 11 11 11 11 11 11 12 12 12 12 12 12 12 12 11 10 10 11 12 13 14 14 15 14 13 11 9 9 9 9 10 11 12 12 13 15 15 15 16 16 17 15 13 11 10 10 9 8 6 6 5 6 5 5 6 7 9 13 15 17 18 20 22 24 25 26 27 27 27 27 27 25 24 23 23 22 23 23 23 23 23 23 24
9 10 10 11 12 12 13 13 13 13 13 13 13 13 13 13 13 12 12 12 11 10 10 10 11 11 12 13 13 13 12 9 9 10 11 12 12 12 12 13 15 16 16 17 18 17 15 12 10 9 8 9 8 6 5 6 6 7 6 5 5 7 10 13 16 18 21 23 25 27 28 27 26 26 27 28 26 24 23 22 22 22 23 24 25 25 25 26
10 10 11 12 13 13 14 14 14 14 14 13 13 14 14 14 14 13 13 13 12 11 10 10 10 10 10 11 12 12 12 9 10 11 11 12 12 13 13 13 15 15 17 18 18 18 15 13 11 10 8 8 8 7 7 7 9 10 7 4 4 6 10 13 16 18 20 22 25 27 27 25 25 25 26 27 27 25 24 23 23 24 25 26 26 26 27 27
11 12 12 13 14 15 15 14 14 14 14 14 14 14 14 14 14 14 13 13 13 12 12 11 10 9 9 10 10 11 11 10 11 11 11 12 12 13 13 13 14 15 17 18 18 17 15 13 12 10 10 9 8 9 9 9 11 11 8 6 7 8 11 14 16 18 20 22 24 25 25 25 25 24 24 26 26 26 25 26 27 27 29 29 28 28 28 28
12 13 14 15 16 16 16 16 15 15 15 15 15 14 15 15 14 14 14 14 13 13 13 12 12 10 9 9 10 11 10 10 11 11 11 11 11 12 13 13 14 15 16 17 17 17 15 14 12 12 11 9 9 9 9 10 10 10 10 10 10 11 12 14 16 18 20 22 22 23 24 24 24 24 24 25 26 26 27 28 29 29 30 30 30 29 28 29
13 14 15 15 17 17 17 17 17 17 16 16 16 15 15 15 15 15 14 14 14 14 14 13 13 12 11 10 9 10 10 10 11 11 10 11 11 11 12 12 13 13 14 15 16 16 16 16 14 13 12 10 10 10 10 10 9 10 12 12 12 12 14 15 16 18 20 21 21 22 23 23 23 23 24 25 26 27 29 29 29 29 29 30 30 29 29 30
14 15 15 16 17 18 19 19 18 18 17 16 16 16 15 15 15 15 15 15 15 14 14 14 14 14 13 11 10 11 11 11 11 11 11 10 10 11 11 12 12 12 13 14 15 15 16 16 14 14 12 11 11 12 10 9 10 12 13 13 13 15 16 15 16 17 18 20 20 20 21 22 23 24 25 26 26 27 28 29 29 28 28 29 30 30 30 32
15 15 16 17 18 19 19 19 19 19 18 17 16 16 15 15 15 15 15 15 15 15 14 15 14 14 14 13 11 12 12 12 13 12 12 11 10 10 11 11 11 12 13 13 14 15 15 15 15 14 13 12 13 12 10 9 11 12 13 14 14 15 16 15 16 16 16 17 18 18 20 22 23 25 26 26 26 26 28 29 28 27 27 29 30 31 32 34
15 15 16 17 18 19 19 19 19 18 18 17 16 16 15 15 14 15 15 15 15 15 15 14 14 14 13 13 13 13 13 14 14 14 13 12 11 11 11 11 11 12 12 13 14 14 15 15 15 15 14 13 13 12 10 11 12 12 15 16 15 15 14 14 16 15 15 16 16 17 21 26 25 25 25 26 28 28 29 29 27 26 28 30 32 33 34 36
16 16 16 17 18 19 19 19 19 18 18 17 16 16 16 15 15 14 14 14 14 15 15 15 15 14 13 13 13 14 14 15 15 15 15 14 12 12 12 11 11 11 12 12 14 14 14 15 15 16 15 14 14 11 10 12 13 14 16 17 17 16 13 13 15 15 15 16 17 19 25 31 29 26 26 26 28 29 28 27 27 29 31 33 34 35 36 37
18 17 17 17 18 18 19 19 18 18 18 17 17 17 16 15 15 15 14 14 14 15 16 16 16 16 16 16 15 14 14 14 14 15 16 15 14 14 13 12 11 11 12 13 14 14 14 14 15 16 16 15 14 12 11 12 13 15 16 16 16 18 16 15 15 16 16 17 20 21 28 33 28 25 26 26 28 29 28 27 29 31 34 36 37 37 37 38
20 19 19 18 18 18 18 18 18 18 18 17 17 17 17 16 15 15 15 15 15 15 16 17 18 18 18 18 16 14 13 13 14 15 16 16 16 16 14 13 12 12 12 13 14 14 15 15 16 16 17 16 14 13 13 13 13 15 17 17 18 20 20 19 17 18 20 21 23 21 26 33 30 25 27 29 30 29 29 30 31 34 36 39 39 39 38 39
22 21 20 20 20 19 18 18 18 18 18 18 17 17 18 17 16 16 16 16 17 16 17 18 19 20 21 19 15 13 14 16 17 18 17 17 18 17 15 14 13 13 13 14 15 16 17 17 16 17 17 16 15 15 14 14 14 15 17 20 22 24 25 24 20 20 22 24 26 24 27 34 34 31 32 32 32 31 32 33 33 36 39 41 41 40 40 41
23 23 22 22 21 21 20 19 19 19 19 18 18 18 18 18 18 17 18 18 18 17 18 19 20 21 21 19 17 16 19 21 21 21 20 19 19 18 16 15 14 13 13 15 17 18 19 18 17 17 17 16 15 14 14 15 16 17 20 22 24 25 27 27 24 23 23 24 27 28 31 35 34 33 33 32 31 32 33 34 34 38 41 42 42 41 42 44
25 25 24 24 24 23 22 21 21 20 20 19 19 19 19 20 19 19 19 19 19 19 19 19 19 21 21 20 21 22 23 23 23 22 22 21 20 19 18 17 16 14 14 16 18 20 21 19 18 17 16 16 16 14 13 15 17 19 21 25 26 26 26 27 26 24 23 25 27 28 31 33 31 31 32 32 32 33 34 35 37 40 43 44 43 43 44 45
28 27 27 26 25 25 24 23 22 22 21 21 21 21 21 21 21 21 21 20 20 20 21 21 21 23 23 23 25 25 24 24 24 24 24 23 20 19 19 19 17 16 15 16 19 22 22 21 19 17 16 17 17 15 14 16 18 20 23 26 27 28 27 26 24 24 24 27 30 30 32 32 30 30 31 33 34 35 37 38 40 43 45 45 44 44 44 44
29 29 29 28 27 27 26 25 25 24 23 23 23 23 23 23 23 23 23 23 23 24 23 24 24 25 25 26 26 25 25 26 25 25 25 23 20 19 20 19 18 17 17 18 20 22 23 22 19 17 17 18 17 16 15 17 19 21 23 25 27 29 29 25 23 23 24 29 32 31 32 32 31 30 31 33 36 38 40 42 44 45 46 45 44 43 43 43
31 31 30 30 29 28 28 27 27 27 26 26 25 26 27 27 26 27 28 27 27 27 27 26 27 28 28 27 26 27 27 25 24 24 24 22 19 20 20 19 19 18 18 20 21 22 24 22 18 17 18 18 17 16 16 17 20 22 23 24 26 28 28 25 23 23 23 29 33 32 33 34 32 32 33 36 40 42 43 43 44 45 44 43 42 42 41 41
32 32 31 31 30 30 29 29 29 29 29 28 28 28 29 29 29 30 32 32 31 30 29 29 28 28 29 29 28 27 25 22 21 21 20 18 18 19 19 19 20 19 20 21 22 24 25 21 17 18 18 17 17 16 17 17 19 21 21 24 26 25 27 26 24 24 24 29 34 34 35 36 35 35 36 40 42 41 41 40 40 40 40 39 39 40 40 41
32 33 32 32 31 30 30 30 31 31 31 31 31 31 31 31 32 32 33 35 35 32 31 30 30 29 30 29 26 23 20 17 16 16 16 16 18 19 19 21 22 21 21 21 22 25 26 21 18 19 18 18 18 17 17 17 18 19 21 23 24 23 25 27 27 27 27 29 34 38 42 43 39 35 32 34 36 35 34 35 35 35 36 37 37 38 39 40
33 34 33 32 31 31 32 32 32 32 32 33 32 32 33 33 34 34 34 36 38 36 33 31 30 29 27 24 20 17 14 13 13 16 16 16 18 19 21 22 22 22 22 22 23 26 26 21 19 19 19 19 19 18 18 18 18 19 19 21 21 21 22 27 30 30 31 30 31 37 43 41 32 23 23 26 29 31 32 33 35 35 35 36 37 38 38 38
34 33 33 33 32 32 33 33 33 33 33 33 33 33 33 34 35 35 35 34 36 37 34 31 28 25 21 17 14 13 12 12 14 17 17 17 18 19 22 22 22 22 23 23 25 28 26 20 18 20 21 20 18 18 18 18 20 20 18 17 19 21 24 27 29 31 32 28 26 29 25 19 15 17 26 33 33 33 33 35 35 35 36 37 36 37 37 37
33 33 33 33 32 32 33 34 33 33 33 33 33 33 33 34 34 34 33 29 31 34 31 26 22 18 17 16 14 14 14 15 16 16 17 18 19 19 21 22 23 23 24 25 26 28 25 19 19 22 22 20 19 18 17 17 20 21 19 17 18 22 25 27 30 30 28 24 26 28 21 17 22 31 38 38 34 33 33 36 36 35 36 36 35 37 37 36
33 32 33 33 33 33 34 34 33 33 34 33 32 32 32 32 31 32 28 18 18 26 24 20 18 18 19 19 17 17 17 16 17 16 17 19 19 19 21 22 23 25 25 25 26 28 25 20 21 23 22 22 20 17 15 16 19 21 21 18 20 24 25 28 31 31 32 34 35 37 32 27 33 41 41 34 31 33 35 36 34 33 33 33 35 36 35 35
34 33 34 34 33 33 34 34 34 34 33 33 32 32 31 30 29 28 19 6 9 20 22 21 22 22 22 20 20 19 19 18 17 16 17 19 20 20 21 22 24 26 26 26 29 29 24 22 23 23 23 22 19 16 15 17 20 22 21 20 23 25 26 30 31 34 38 32 32 40 32 20 28 39 36 32 32 34 34 33 30 29 29 30 34 35 35 36
36 36 35 35 34 34 34 34 35 34 33 33 32 31 30 28 27 21 8 4 11 18 21 22 22 22 21 21 21 19 19 19 18 18 18 19 20 20 22 24 25 27 29 30 31 27 22 22 22 22 24 21 17 16 17 18 19 20 21 22 25 25 28 32 31 36 33 20 27 42 30 14 21 34 33 30 32 33 34 33 29 28 29 32 34 34 35 36
38 38 37 37 36 35 35 35 34 34 33 33 31 30 28 26 23 12 4 8 15 17 20 23 25 25 24 23 21 18 18 19 20 22 22 22 22 22 23 25 27 28 30 30 29 25 21 21 22 22 23 20 17 17 18 18 18 19 20 22 25 26 29 30 30 30 19 11 25 33 24 17 15 25 32 31 33 35 35 34 30 29 32 34 34 33 34 36
40 39 39 39 37 36 35 35 34 33 32 32 30 29 26 23 18 7 6 16 21 20 22 24 24 24 22 20 18 16 18 19 22 24 25 24 24 23 24 25 25 28 30 29 27 25 21 21 23 24 22 19 18 18 18 18 17 18 20 22 24 22 21 20 19 15 5 7 21 19 14 17 17 24 37 38 39 37 32 31 29 29 33 34 32 32 33 35
40 40 39 39 38 36 35 34 34 33 31 30 28 27 25 18 15 17 18 20 16 12 16 17 18 18 16 16 17 18 20 22 23 24 25 25 25 26 27 26 25 25 26 25 24 25 26 26 25 23 19 17 17 18 17 16 15 16 18 19 17 11 10 7 6 5 6 12 21 16 11 17 29 41 46 40 36 31 28 29 28 29 33 33 32 32 34 36
40 39 39 39 38 35 34 33 33 31 30 29 26 27 23 14 14 25 29 24 15 14 16 16 16 17 16 18 19 19 22 24 24 24 25 27 28 28 28 28 27 23 23 25 26 25 25 24 21 18 16 14 14 15 15 14 14 14 16 16 11 4 5 5 4 5 8 15 22 18 12 17 31 41 37 29 29 29 30 30 30 33 32 31 33 34 36 38
39 39 39 39 37 34 33 32 32 31 29 28 28 27 24 20 21 28 31 30 28 28 26 22 21 22 22 23 23 22 23 24 26 27 29 30 31 31 30 28 25 23 23 25 25 21 16 15 16 16 14 12 12 13 13 15 16 17 18 17 17 14 8 6 5 5 9 19 24 16 9 12 22 28 29 31 36 36 35 33 33 35 32 31 35 35 36 38
39 40 39 38 36 34 32 32 32 31 29 30 30 29 32 32 31 32 34 34 32 32 32 30 28 27 26 27 26 24 24 25 27 29 30 32 33 32 30 28 26 23 23 21 19 16 14 15 17 17 15 13 14 16 15 16 15 15 17 19 21 21 18 18 19 20 17 18 18 16 18 27 35 40 40 39 39 36 33 33 33 32 31 30 32 33 34 36
40 41 40 39 38 35 33 33 33 31 32 32 33 38 44 43 38 35 33 30 26 27 30 30 28 26 26 27 26 26 25 27 29 29 29 31 32 33 32 30 27 24 23 23 20 15 14 17 18 16 17 17 18 19 17 17 14 13 16 20 22 20 20 22 21 20 15 10 15 19 27 40 42 39 38 34 34 34 30 31 31 27 27 28 29 32 33 34
42 42 42 41 39 35 34 35 34 34 35 35 40 48 50 47 44 40 35 32 30 29 28 28 26 23 23 23 22 23 24 27 30 30 31 29 27 28 28 26 25 23 20 20 22 21 19 24 26 23 22 22 21 20 19 20 19 19 20 20 19 16 18 18 10 8 5 5 14 20 28 39 32 24 33 35 32 31 28 28 28 24 26 29 31 32 32 35
44 44 45 43 39 36 37 37 37 37 37 39 47 52 51 49 47 43 39 37 36 33 32 31 29 27 27 25 23 21 22 27 29 28 30 28 24 25 25 24 24 22 18 17 22 23 22 27 29 25 23 22 21 20 20 22 22 23 25 23 18 15 15 15 9 4 5 4 9 16 23 38 35 28 36 39 30 27 28 29 27 24 28 32 32 32 32 36
45 47 48 44 38 37 38 39 39 39 40 47 53 53 52 52 50 45 42 39 37 36 37 37 35 33 33 31 28 24 24 29 31 30 29 26 25 27 27 24 20 17 17 19 22 24 24 23 22 21 20 19 19 22 23 25 24 25 27 27 26 24 21 21 16 9 6 5 10 11 12 30 40 31 30 31 28 29 33 31 27 28 34 35 32 32 33 36
46 48 50 47 40 37 38 39 42 44 47 53 56 55 54 52 50 47 43 40 39 39 41 41 39 37 37 35 32 30 30 33 35 33 32 30 30 32 30 26 21 18 18 20 22 24 25 24 24 23 21 20 24 27 27 25 23 25 30 30 30 29 27 25 23 22 17 8 8 5 9 32 41 28 26 31 33 39 39 33 32 35 38 35 31 31 32 35
46 48 52 49 42 38 37 41 47 50 54 58 57 56 54 52 51 49 45 41 40 41 43 43 41 41 40 38 36 35 34 36 38 36 36 37 37 36 31 27 23 20 20 22 24 25 25 27 31 30 28 30 33 33 28 26 26 28 32 33 33 32 28 18 14 22 26 20 14 5 11 36 40 27 34 39 38 44 43 36 38 41 39 34 31 30 32 34
48 50 52 48 44 40 38 44 50 52 56 59 57 55 54 53 52 50 47 44 42 43 43 44 45 43 42 41 39 38 37 38 40 39 40 42 42 38 34 29 26 25 24 25 26 26 25 28 33 35 37 37 37 34 30 30 34 34 35 37 35 32 32 24 14 16 21 25 26 14 13 35 43 35 39 41 41 44 42 39 42 42 39 34 31 32 32 34
51 51 51 49 47 43 40 45 51 54 58 59 56 54 54 53 52 50 48 46 44 45 44 46 47 45 44 43 41 41 40 39 42 44 44 45 45 41 37 34 32 30 28 27 26 24 25 29 33 36 37 37 38 38 36 36 38 40 40 40 36 34 35 35 30 25 20 22 22 10 13 35 45 41 40 40 44 45 41 43 47 43 40 36 32 33 33 35
51 50 50 50 49 47 47 51 54 56 58 58 56 55 54 53 53 53 51 49 47 47 46 47 47 46 45 44 42 42 41 39 41 44 43 43 43 40 36 34 34 33 32 30 26 24 25 28 30 25 20 21 24 23 24 30 33 36 37 35 34 35 35 37 37 29 24 27 23 12 17 40 47 44 44 45 49 51 48 50 50 44 40 37 34 36 38 40
48 49 50 52 52 51 53 55 55 55 56 56 56 57 55 55 56 55 53 52 50 49 48 48 47 46 46 44 43 43 43 42 42 42 41 39 38 37 35 33 34 35 34 32 30 29 30 32 32 23 11 10 15 15 19 27 28 31 36 36 35 35 34 37 35 28 24 29 31 28 32 51 59 51 51 56 56 55 54 52 51 47 42 41 40 41 42 43
48 51 53 53 53 55 57 56 54 55 56 55 55 55 56 58 58 56 54 54 53 50 49 49 48 46 46 45 44 44 46 46 44 45 46 42 40 40 39 38 36 34 32 31 31 33 35 38 40 38 32 31 36 37 37 37 37 39 43 42 40 36 33 34 33 35 35 30 37 50 49 54 66 60 54 59 57 52 53 52 51 50 47 45 44 43 44 44
50 56 60 57 51 51 57 58 56 57 57 55 55 57 60 61 60 58 56 55 53 50 49 49 49 48 49 48 46 46 48 47 47 49 49 47 46 45 44 43 38 34 32 31 32 34 38 41 44 45 46 47 49 48 44 43 46 49 50 49 45 36 33 36 38 47 46 27 35 60 55 50 65 64 52 54 53 51 53 52 50 49 47 45 44 44 45 46
55 61 65 63 56 54 58 60 58 56 54 55 57 58 59 61 61 61 59 55 52 50 48 50 52 53 53 51 47 47 49 48 48 50 50 49 47 46 47 47 43 41 39 36 36 37 39 43 46 46 48 50 50 47 45 46 48 51 54 53 47 40 41 44 47 55 51 37 45 66 61 56 69 67 56 55 55 55 55 53 51 49 47 48 48 48 49 49
58 62 64 65 63 63 65 64 57 51 49 51 53 55 59 61 63 63 58 53 52 52 52 53 56 55 53 51 50 52 52 48 47 49 49 47 45 44 47 47 44 44 42 39 40 38 39 45 47 46 48 51 49 46 46 47 48 54 60 57 51 51 52 50 54 59 57 55 63 68 64 67 70 63 59 58 55 57 56 53 53 53 52 53 52 51 52 52
62 65 66 65 64 63 63 62 57 53 51 50 52 59 62 60 61 61 57 55 55 56 56 56 57 56 52 51 52 56 57 52 51 49 45 43 43 43 44 44 41 40 39 38 39 38 40 45 45 43 44 47 49 45 44 45 47 54 61 58 55 56 55 54 59 63 60 61 64 62 64 69 63 53 54 54 51 53 52 50 52 52 51 51 49 49 49 48
63 65 64 63 63 63 62 60 59 58 58 57 61 66 64 61 61 60 59 59 60 60 58 57 56 53 50 50 54 58 57 53 51 48 43 42 42 39 40 40 37 36 37 37 37 38 40 43 45 41 36 41 47 43 41 44 44 51 62 63 59 58 57 57 57 56 55 58 57 54 60 63 56 49 49 50 49 50 48 47 47 46 46 45 44 44 44 43
61 63 63 60 59 60 60 62 62 61 64 67 68 67 64 62 62 59 57 60 61 60 58 57 54 50 50 53 56 57 53 49 49 47 43 45 45 43 44 44 41 39 40 39 38 39 40 41 44 40 32 37 43 39 39 36 27 37 58 61 53 51 49 47 48 50 51 51 50 52 57 58 54 48 48 48 48 48 46 45 44 43 42 41 42 43 42 41
Wind_Direction
254 257 263 273 279 280 283 287 296 308 315 317 316 318 324 329 334 340 350 359 5 8 9 11 11 15 19 21 27 30 34 41 35 35 43 42 37 35 33 30 27 22 15 10 5 359 351 341 332 314 298 290 286 287 285 283 269 263 276 280 278 268 260 264 268 274 280 286 294 302 306 306 303 300 298 297 296 296 295 294 292 292 292 290 288 288 289 291
265 268 272 278 283 287 289 290 294 300 307 311 312 315 319 324 329 331 336 347 356 3 5 6 9 11 15 18 20 23 27 29 26 24 25 26 28 28 29 27 23 17 12 6 2 359 355 347 339 330 314 310 302 291 288 280 261 268 280 275 276 273 270 274 276 278 283 288 291 294 297 299 300 298 297 296 294 296 296 294 294 295 295 294 292 291 293 295
269 272 276 281 287 290 292 294 296 298 302 307 309 311 315 320 326 329 331 334 342 354 0 2 5 7 11 13 13 16 17 16 17 9 8 13 18 21 24 25 21 16 9 2 359 357 353 347 342 337 330 334 329 312 304 289 280 290 292 286 284 275 271 274 277 277 278 282 286 289 290 293 295 295 295 294 292 293 295 294 295 297 297 296 294 294 295 296
272 274 277 282 286 290 293 296 297 299 302 305 307 309 312 316 320 326 329 329 330 338 350 356 359 2 7 8 8 11 8 6 10 3 4 9 10 13 17 18 18 15 8 360 357 354 350 348 347 344 339 339 337 329 318 305 302 310 313 307 295 276 269 270 272 272 271 274 281 285 285 287 289 290 292 291 289 290 294 296 296 297 297 295 294 294 294 294
278 277 278 282 285 289 292 295 297 299 301 305 309 311 312 315 317 321 326 328 326 324 334 347 351 354 359 4 4 4 4 0 1 2 4 6 7 6 8 13 13 12 8 2 357 353 352 352 353 354 345 338 341 341 333 320 314 320 327 318 292 268 266 269 269 270 271 273 277 279 281 283 285 286 288 288 289 292 295 295 294 294 294 292 291 292 293 293
283 282 282 284 286 288 291 294 297 299 301 305 310 314 316 318 317 318 322 325 326 322 321 328 340 344 346 355 357 358 3 357 355 1 2 4 6 2 3 8 7 6 6 2 357 355 357 358 358 358 349 347 351 349 344 335 327 326 327 318 289 271 267 270 271 272 274 274 276 278 280 282 283 283 285 286 289 294 296 295 294 292 291 290 289 290 290 291
287 288 287 287 289 290 292 293 296 299 302 305 309 315 318 321 320 319 321 322 324 323 319 317 322 331 334 338 343 349 355 355 355 359 360 2 3 359 360 3 2 2 2 358 354 355 358 360 0 357 354 1 359 350 346 336 328 325 321 311 304 294 283 279 276 276 276 276 277 278 279 280 281 281 282 283 286 290 293 294 295 294 292 290 289 288 288 290
289 291 291 291 293 294 295 295 297 299 301 303 307 313 317 320 321 320 321 322 323 323 320 317 313 317 323 323 326 334 342 347 350 353 356 357 357 355 355 358 358 358 357 353 351 354 357 359 1 359 359 3 353 348 345 334 328 323 316 313 311 304 297 289 284 281 279 278 279 279 280 280 280 281 281 281 283 287 291 294 295 294 291 289 288 287 287 291
290 292 293 294 295 297 298 298 298 298 300 302 304 309 314 317 318 319 321 321 322 322 321 318 314 310 311 312 309 314 325 332 337 345 350 350 352 352 350 352 353 353 353 351 351 355 356 357 359 358 357 357 349 343 339 331 324 320 314 314 313 305 299 294 291 289 283 282 283 282 281 280 279 279 280 283 286 290 292 293 295 293 289 287 286 285 288 292
288 292 295 296 298 299 300 300 300 299 299 300 302 307 312 314 315 315 317 319 319 320 320 318 317 311 306 304 298 300 307 315 323 331 337 340 344 345 345 345 345 349 350 348 349 353 354 354 357 357 355 353 344 336 332 324 317 317 312 312 314 306 304 300 297 294 285 283 283 280 279 276 274 277 283 290 292 291 292 294 295 292 288 286 285 286 290 293
285 290 293 297 299 301 301 302 301 301 300 300 302 305 309 312 313 313 314 316 316 317 318 317 318 316 309 301 296 296 296 301 308 314 322 327 330 334 337 338 340 343 344 344 345 349 352 351 354 356 352 347 342 334 327 319 316 314 310 314 313 307 307 303 297 294 285 281 281 279 276 271 271 279 288 294 292 292 296 298 296 292 289 287 287 288 291 293
281 284 289 294 298 301 302 302 303 303 302 303 304 305 308 310 312 314 313 314 314 314 315 317 318 317 312 304 298 295 292 293 297 300 305 311 318 321 323 331 335 334 336 339 340 344 348 348 349 349 343 338 339 335 327 324 322 314 313 316 313 310 306 296 293 291 286 284 283 284 279 276 280 286 290 292 291 294 296 296 295 293 292 291 291 292 293 294
278 280 284 289 294 298 299 301 301 302 303 304 306 306 308 310 312 314 314 315 314 313 313 313 314 313 313 310 303 295 289 289 292 292 293 297 305 309 310 318 323 326 329 332 336 340 345 346 343 340 337 332 333 333 330 330 324 315 316 318 316 317 311 296 292 287 285 284 286 287 281 283 291 291 289 289 290 291 291 292 293 293 294 295 296 296 296 295
276 278 280 284 290 293 295 296 298 300 302 304 306 306 307 309 311 312 314 315 314 313 313 312 313 313 313 313 310 300 290 289 292 292 289 287 292 299 303 308 312 318 324 328 332 336 341 341 335 332 330 327 328 328 330 329 322 318 321 322 318 316 313 306 297 290 290 288 290 286 279 288 295 289 287 290 291 289 288 291 293 294 296 297 298 297 296 295
275 276 279 283 287 289 290 291 293 296 298 301 304 304 305 307 309 310 312 313 313 312 312 312 313 313 312 312 312 305 297 297 299 296 288 280 285 290 294 302 307 311 318 321 324 329 335 331 326 326 325 324 324 322 322 319 314 319 325 326 319 312 311 310 302 297 300 299 297 287 279 292 300 292 290 293 292 290 291 293 294 295 296 296 296 295 294 293
273 275 277 281 285 287 288 288 289 291 294 297 300 301 302 303 306 308 309 310 310 311 311 311 311 311 310 310 311 308 305 305 303 298 288 278 280 283 286 297 302 303 308 314 319 324 328 327 323 321 322 323 323 321 319 311 308 315 321 322 320 314 311 311 309 306 305 302 299 291 286 295 300 297 295 295 294 292 291 293 293 294 294 294 294 293 292 293
270 273 276 279 282 285 288 289 289 289 292 294 296 298 299 300 302 304 306 307 308 310 309 308 308 307 305 306 309 308 307 305 302 297 287 277 275 275 278 287 296 299 301 312 320 321 324 326 322 320 320 320 321 320 313 308 308 313 317 317 316 315 310 308 311 311 306 298 294 290 287 294 299 297 295 293 291 289 289 291 292 292 292 293 294 293 293 294
267 271 274 277 280 284 288 290 290 290 292 294 294 295 296 298 301 303 304 305 307 308 307 307 308 305 302 303 304 305 305 302 299 294 287 279 272 268 271 278 288 294 295 308 319 320 322 322 320 319 317 317 320 316 304 299 303 307 310 310 311 312 309 308 312 313 305 295 291 286 285 294 297 293 291 290 288 287 287 288 289 290 290 292 293 293 293 292
266 268 271 275 279 283 286 290 292 291 291 294 295 295 296 297 299 301 300 300 303 305 307 308 307 303 300 301 302 302 301 299 296 292 286 280 271 263 265 271 281 289 291 302 314 319 319 319 321 319 316 317 318 314 303 296 296 297 299 302 305 306 308 314 314 309 302 294 292 290 289 294 294 289 289 289 287 285 284 285 287 288 289 290 291 290 290 289
265 268 271 274 278 282 286 290 293 293 292 293 294 294 295 295 296 295 292 294 298 301 303 304 303 302 301 300 300 300 299 296 294 290 284 277 268 260 259 264 275 286 292 298 308 315 317 319 321 317 314 316 313 310 304 297 294 294 297 301 303 301 305 316 312 303 299 294 295 296 292 291 293 292 290 286 284 283 284 286 287 288 288 289 289 288 287 287
265 268 271 274 278 282 285 289 292 294 294 294 294 295 297 297 297 295 292 292 295 298 300 300 300 300 301 300 299 299 298 294 292 288 281 272 263 256 256 262 272 284 292 296 303 311 314 317 317 312 311 311 308 305 301 297 296 296 298 301 302 302 305 312 307 301 300 294 296 299 289 287 293 293 288 282 282 285 287 287 287 286 286 286 285 284 285 285
265 268 271 273 277 280 284 287 291 293 294 296 296 297 299 299 298 298 296 293 293 296 299 299 298 298 299 298 297 297 294 291 289 284 277 268 258 253 256 262 269 280 288 292 300 308 312 314 311 309 310 307 305 302 298 296 295 297 299 298 301 309 309 309 307 304 302 296 299 301 288 284 289 290 287 283 282 286 287 286 285 284 282 282 282 282 282 283
266 268 270 273 276 279 282 285 288 291 293 295 297 298 299 299 299 299 298 297 294 294 297 298 298 298 298 296 295 293 289 289 286 281 276 263 254 253 257 263 268 278 285 288 296 304 309 311 307 306 308 305 301 298 294 292 293 296 298 297 301 312 310 306 306 304 301 297 299 300 290 282 285 287 286 283 283 286 286 284 283 282 281 280 279 280 280 281
267 268 269 272 276 279 281 283 286 288 291 293 295 297 298 299 299 299 299 299 296 294 296 299 298 297 297 295 291 285 285 288 282 280 275 262 255 252 257 264 269 277 283 287 293 300 305 305 300 302 305 303 298 294 292 290 292 293 294 296 301 311 308 303 304 302 299 296 297 300 293 286 286 289 291 289 288 290 290 286 283 283 282 279 278 278 279 281
268 269 271 273 275 277 280 282 284 286 288 291 293 295 297 298 299 299 301 303 299 295 296 298 297 295 294 291 286 284 284 284 280 278 270 257 254 252 256 263 269 277 283 288 295 301 304 301 296 302 303 300 295 290 289 289 291 291 292 295 301 309 308 305 304 302 299 296 297 301 298 293 286 284 295 296 293 292 291 286 283 281 279 276 278 278 278 280
268 270 271 272 274 277 278 280 283 285 287 288 291 293 294 295 297 298 302 306 300 296 297 297 293 289 289 285 285 289 284 282 282 276 261 250 252 256 259 262 269 280 285 290 296 300 303 299 296 301 301 297 291 288 288 287 289 290 292 297 302 306 306 304 302 298 295 290 293 293 285 282 278 280 293 297 292 290 288 288 285 279 278 278 279 277 276 279
266 268 269 271 273 275 277 279 281 283 284 286 288 290 290 293 294 297 305 308 297 296 295 291 286 284 285 284 286 285 279 282 282 270 255 249 252 258 258 263 274 283 286 290 294 298 300 296 295 300 296 290 288 288 286 281 282 287 293 298 301 304 305 301 298 294 290 287 289 285 276 275 276 282 295 296 290 290 290 294 292 282 282 283 278 276 276 278
264 266 267 269 270 272 276 278 279 280 283 284 286 287 288 289 291 296 304 297 285 293 288 283 284 283 282 281 283 278 273 279 275 263 256 251 252 254 258 270 281 283 285 288 290 294 295 290 293 295 289 287 288 286 276 273 278 283 290 296 298 303 301 297 295 291 290 290 287 282 274 267 272 279 292 292 287 293 299 302 297 288 288 285 278 275 275 276
264 265 266 268 268 271 274 275 277 279 280 282 283 285 285 286 289 293 290 248 278 285 279 280 280 279 280 279 276 271 269 272 265 259 257 248 248 254 263 277 283 283 287 290 290 292 289 287 291 290 285 287 286 276 267 269 276 280 288 293 296 299 296 294 292 288 289 282 276 281 275 253 271 279 283 286 289 300 308 305 296 290 289 284 278 276 276 277
264 264 266 267 268 270 272 273 275 276 277 279 281 282 282 283 283 280 224 254 275 275 273 279 279 278 279 273 267 263 262 263 258 256 254 249 250 257 268 279 283 286 290 291 291 290 285 284 289 288 286 286 278 269 266 267 271 276 283 288 291 293 291 289 286 284 287 268 271 283 274 249 267 284 282 288 298 305 308 301 293 290 287 282 280 279 278 277
263 264 265 266 268 269 271 272 272 273 275 276 278 279 278 276 268 228 212 270 276 272 270 274 274 274 270 260 254 256 258 258 256 254 253 253 253 258 268 277 283 289 291 291 291 288 282 283 289 289 284 279 272 265 263 262 263 270 278 287 293 295 293 285 276 275 260 264 282 294 284 247 235 270 285 294 301 304 303 297 294 291 285 282 281 280 279 278
262 262 264 265 265 267 268 269 270 270 271 271 273 273 269 264 240 220 240 269 274 266 265 267 264 257 247 242 246 256 258 257 257 256 254 253 256 262 269 275 282 288 289 289 288 286 285 287 290 287 277 271 263 256 257 256 259 268 275 284 291 304 311 279 248 255 224 261 284 290 288 253 245 268 285 292 298 302 297 295 296 291 283 279 280 281 280 278
261 261 262 262 263 264 264 266 266 265 267 266 266 263 255 242 231 237 248 257 258 262 266 262 256 246 236 239 248 254 255 256 257 254 252 254 259 264 268 274 279 278 277 281 284 284 288 290 288 282 275 266 250 247 256 258 261 269 271 274 273 289 338 291 260 281 261 273 285 280 275 265 264 278 289 293 300 302 294 294 297 292 282 278 280 282 281 277
262 261 260 260 261 261 261 261 261 261 262 259 258 253 236 224 239 249 253 258 262 267 267 260 255 250 246 249 252 252 251 252 252 249 251 257 261 264 266 272 276 272 270 274 275 275 276 279 281 278 273 262 250 255 265 268 269 269 264 260 253 243 245 263 267 273 287 296 293 278 255 256 272 284 289 293 299 297 292 294 295 291 285 282 283 283 281 279
263 261 261 261 260 260 260 259 258 257 255 255 253 243 227 227 240 248 256 263 265 266 266 263 259 253 251 253 254 252 250 249 249 248 250 255 259 263 266 270 270 266 262 260 264 269 261 263 274 273 262 257 265 270 267 264 265 261 251 243 249 253 249 250 258 264 281 301 290 262 253 265 276 281 281 288 295 293 293 295 293 290 287 287 287 284 282 279
262 262 262 261 260 260 259 257 256 253 251 250 245 236 235 241 247 251 258 264 263 265 266 263 258 251 250 252 250 247 246 248 251 250 250 254 257 261 265 269 268 262 255 251 255 265 263 267 274 269 259 260 270 272 263 258 259 250 245 251 262 267 256 251 263 272 273 286 278 265 269 279 284 284 281 287 294 295 299 297 292 290 291 291 288 284 281 277
261 262 261 260 260 260 258 256 253 250 249 246 241 241 246 251 253 253 257 261 263 264 261 257 255 252 250 250 248 244 242 244 248 249 250 253 257 262 265 267 266 261 257 252 253 259 264 272 276 270 264 264 266 265 258 254 254 248 254 267 270 264 254 247 262 294 259 246 274 270 274 282 282 280 285 290 296 300 303 297 292 292 295 296 290 284 280 275
261 261 260 259 259 259 256 254 252 250 248 243 242 247 251 252 254 256 258 260 261 260 256 254 255 257 256 255 254 250 240 241 244 245 249 251 255 263 266 265 265 261 253 244 246 255 264 274 279 273 264 263 258 253 252 251 250 252 260 265 259 252 252 238 221 272 271 241 277 274 277 280 272 266 282 290 294 301 302 295 292 297 299 298 292 285 280 273
260 261 260 258 258 256 254 253 253 250 245 241 243 247 250 252 255 259 259 258 257 255 254 255 255 257 258 257 256 253 247 249 250 248 250 252 254 264 268 265 261 254 244 237 242 253 260 267 275 270 260 255 243 238 247 255 254 254 255 252 251 254 256 247 229 226 248 256 276 279 282 280 275 273 283 289 292 298 299 293 292 298 299 297 291 285 279 272
261 262 261 260 256 253 253 253 251 247 243 244 247 248 250 255 259 261 259 256 255 254 254 255 255 254 256 257 256 255 254 256 256 253 253 253 256 265 268 263 257 252 245 239 242 252 252 250 260 263 252 241 244 252 264 271 265 257 251 248 253 255 254 256 249 237 237 251 281 283 273 276 278 280 283 286 292 296 296 293 293 295 296 295 288 280 276 270
261 261 261 261 258 253 250 248 249 247 246 247 249 249 252 256 259 260 258 255 255 255 255 256 256 254 256 257 256 257 256 256 258 255 254 256 259 263 266 266 265 259 248 243 248 254 249 245 253 256 250 251 263 272 274 271 266 263 259 258 263 262 252 252 258 242 233 232 241 242 277 276 274 273 278 282 290 294 292 290 292 293 293 291 285 277 272 268
260 260 262 263 260 256 248 246 250 250 248 249 251 253 255 258 258 259 259 257 255 254 253 254 255 255 255 256 257 258 256 256 257 255 255 261 263 264 266 271 271 265 259 257 260 260 253 251 254 255 257 264 272 273 268 268 268 265 262 262 263 259 246 239 245 246 234 233 238 241 269 272 271 273 278 283 289 291 289 289 292 293 291 289 282 276 272 267
260 261 262 262 261 257 248 245 248 248 249 252 254 255 256 257 258 259 258 255 252 251 251 252 254 254 255 257 257 257 254 254 257 256 258 263 266 266 267 269 268 264 258 255 257 255 246 244 250 256 262 265 267 268 267 268 267 262 262 262 259 256 251 246 245 249 252 243 236 231 256 264 270 278 280 284 289 290 289 291 293 292 290 287 280 276 274 271
262 262 261 260 258 254 247 246 247 248 252 254 255 256 255 255 257 257 256 254 252 251 250 251 254 255 258 259 257 256 254 253 256 259 260 263 266 267 266 265 263 259 255 255 259 257 247 243 245 252 269 272 267 267 262 259 261 263 266 266 262 260 254 245 243 247 256 254 238 219 251 265 273 279 280 284 288 289 290 291 292 291 289 286 281 278 278 278
260 260 259 257 255 251 249 250 251 251 254 255 256 257 257 256 257 258 258 257 254 252 251 253 257 259 260 259 257 256 254 252 255 260 261 261 262 265 265 263 261 258 256 259 262 260 255 252 246 238 239 259 260 262 263 267 271 271 270 269 267 261 248 242 244 243 248 255 246 237 253 272 278 277 278 284 286 287 290 291 290 289 286 283 281 281 281 282
251 255 255 254 253 251 251 252 250 249 251 252 253 256 257 257 259 259 257 254 252 250 250 254 257 256 256 255 253 253 253 253 254 255 257 258 259 263 266 266 264 259 257 258 259 257 253 253 251 245 242 248 258 267 275 279 278 274 275 276 272 265 252 243 240 241 249 254 254 255 260 272 279 277 278 283 286 286 288 289 288 286 283 282 282 281 281 283
244 250 252 250 248 250 252 251 248 246 248 249 251 256 258 258 259 257 253 251 251 249 249 251 252 250 250 249 247 249 253 253 252 253 255 256 259 264 267 266 262 258 257 257 254 251 248 250 254 252 252 256 263 269 273 274 273 274 276 275 271 268 258 244 240 253 261 252 257 270 270 269 278 282 281 282 284 285 286 287 287 285 283 282 282 280 282 285
240 247 251 251 249 250 253 253 251 250 250 249 251 255 257 257 257 255 252 251 250 248 246 247 249 248 248 247 245 248 252 250 247 249 252 255 260 263 264 264 260 258 260 257 252 250 247 252 258 257 257 263 267 267 268 269 270 273 274 270 267 266 262 255 255 264 265 250 258 276 278 274 279 283 281 281 283 283 285 285 283 281 280 280 280 281 284 285
238 243 247 249 249 251 254 257 258 255 252 250 250 252 253 254 255 254 253 250 248 249 246 245 250 252 247 246 245 245 248 245 244 251 255 258 262 262 261 262 261 260 261 257 254 252 248 253 261 259 258 265 267 266 267 268 268 271 273 269 265 265 265 263 265 269 266 258 263 273 276 277 283 283 281 283 283 281 282 281 279 278 278 279 281 284 285 285
236 239 242 244 246 248 250 253 253 252 251 248 247 250 251 251 252 253 250 247 248 252 248 246 253 255 249 248 247 247 253 253 252 260 267 263 262 262 261 262 262 262 262 258 256 253 248 253 260 258 258 265 269 268 269 268 267 270 272 269 264 265 265 262 265 269 266 262 268 272 269 275 288 293 289 288 286 283 282 281 281 281 280 281 284 286 286 286
237 239 243 243 244 245 246 248 249 249 249 245 245 249 249 249 253 252 249 251 254 255 253 255 261 259 251 249 250 254 263 263 259 267 274 268 265 267 267 265 264 264 263 259 257 255 250 252 257 255 254 263 269 270 268 268 269 269 270 269 265 264 266 266 268 272 269 265 270 268 264 276 296 304 296 292 289 286 284 284 284 283 283 285 286 285 284 285
236 235 241 245 247 247 246 249 248 246 247 247 248 251 251 253 258 254 247 251 255 255 254 258 261 258 251 251 257 265 271 269 265 270 271 266 265 266 264 262 262 262 260 257 257 258 254 253 255 253 249 258 266 267 268 273 276 269 270 275 274 270 272 272 274 278 276 267 264 266 273 287 299 298 293 291 288 285 285 284 283 282 283 283 281 281 282 283
Height
3206 3206 3206 3206 3206 3206 3206 3206 3206 3205 3205 3205 3204 3203 3203 3202 3201 3201 3200 3199 3197 3196 3194 3193 3192 3190 3189 3187 3186 3185 3184 3183 3183 3182 3181 3180 3179 3178 3177 3176 3175 3174 3174 3173 3172 3171 3170 3169 3169 3168 3167 3167 3166 3165 3165 3164 3164 3164 3163 3163 3162 3161 3161 3161 3160 3160 3159 3159 3159 3158 3158 3157 3155 3154 3154 3153 3152 3153 3155 3155 3155 3154 3153 3153 3152 3152 3151 3151
3206 3205 3205 3205 3205 3205 3205 3205 3205 3205 3205 3204 3204 3203 3202 3202 3201 3200 3200 3199 3197 3196 3195 3194 3192 3191 3189 3188 3187 3186 3185 3184 3183 3182 3182 3181 3179 3178 3177 3176 3175 3174 3173 3173 3172 3171 3170 3169 3168 3167 3167 3166 3166 3165 3164 3164 3163 3163 3163 3163 3162 3161 3161 3160 3159 3159 3158 3158 3157 3157 3157 3156 3154 3153 3152 3151 3151 3152 3153 3153 3152 3152 3151 3151 3150 3150 3149 3148
3205 3205 3205 3205 3205 3204 3204 3204 3204 3204 3204 3204 3203 3203 3202 3201 3201 3200 3199 3198 3197 3197 3195 3194 3193 3192 3190 3189 3188 3186 3185 3184 3183 3183 3182 3181 3179 3178 3177 3176 3175 3174 3173 3173 3172 3170 3169 3168 3167 3166 3166 3165 3165 3165 3164 3163 3163 3163 3163 3162 3162 3161 3160 3160 3159 3158 3157 3156 3156 3156 3156 3156 3154 3152 3151 3150 3149 3150 3151 3151 3150 3150 3149 3148 3148 3147 3147 3146
3204 3204 3204 3204 3204 3204 3204 3203 3203 3203 3203 3203 3203 3202 3201 3201 3200 3199 3199 3198 3197 3196 3196 3195 3193 3192 3191 3190 3188 3187 3186 3185 3184 3183 3182 3181 3179 3178 3177 3176 3175 3174 3173 3172 3171 3170 3169 3167 3166 3165 3165 3164 3165 3164 3163 3163 3163 3162 3162 3162 3161 3160 3159 3159 3158 3157 3157 3156 3155 3154 3155 3155 3153 3152 3150 3148 3148 3148 3149 3149 3149 3148 3147 3146 3145 3145 3145 3144
3204 3204 3204 3203 3203 3203 3203 3202 3202 3202 3202 3202 3202 3201 3200 3200 3199 3198 3198 3197 3197 3196 3196 3195 3193 3193 3192 3190 3189 3188 3186 3185 3184 3183 3182 3181 3179 3178 3177 3176 3175 3174 3173 3172 3171 3170 3168 3167 3166 3165 3164 3164 3163 3163 3163 3162 3162 3161 3161 3161 3160 3159 3158 3158 3157 3156 3155 3155 3154 3153 3153 3153 3152 3151 3149 3147 3146 3147 3148 3148 3147 3146 3145 3143 3143 3143 3142 3142
3203 3203 3203 3203 3203 3202 3202 3202 3202 3201 3201 3201 3201 3200 3199 3199 3198 3197 3197 3196 3196 3195 3195 3194 3193 3192 3192 3191 3189 3188 3187 3185 3184 3183 3182 3180 3179 3178 3177 3176 3175 3174 3173 3172 3171 3170 3168 3167 3166 3165 3164 3163 3162 3162 3161 3161 3160 3160 3160 3160 3159 3159 3157 3156 3156 3155 3154 3153 3152 3151 3151 3152 3151 3150 3148 3146 3145 3145 3146 3145 3145 3144 3143 3142 3141 3141 3140 3139
3203 3203 3202 3202 3202 3202 3201 3201 3201 3200 3200 3200 3199 3199 3198 3198 3197 3196 3196 3195 3195 3194 3194 3193 3193 3192 3191 3190 3189 3188 3187 3186 3185 3183 3182 3180 3179 3178 3177 3175 3174 3173 3172 3171 3171 3169 3168 3166 3165 3164 3163 3162 3161 3161 3160 3160 3159 3158 3158 3158 3158 3158 3157 3155 3154 3154 3153 3152 3151 3150 3150 3150 3149 3149 3147 3146 3144 3144 3144 3143 3143 3142 3141 3139 3138 3138 3137 3137
3202 3202 3202 3201 3201 3201 3201 3200 3200 3200 3199 3199 3198 3198 3197 3197 3196 3195 3195 3194 3194 3193 3192 3192 3191 3191 3191 3190 3189 3188 3187 3186 3185 3183 3182 3180 3179 3178 3176 3175 3174 3173 3172 3171 3170 3169 3167 3166 3165 3163 3162 3161 3160 3160 3159 3158 3158 3157 3157 3157 3156 3156 3155 3154 3153 3152 3151 3150 3149 3149 3148 3148 3147 3147 3146 3145 3144 3143 3142 3141 3140 3139 3138 3136 3135 3135 3134 3134
3202 3202 3201 3201 3200 3200 3200 3199 3199 3199 3198 3198 3197 3197 3196 3196 3195 3194 3194 3193 3192 3192 3191 3190 3190 3190 3189 3189 3188 3187 3186 3185 3184 3183 3181 3180 3179 3178 3176 3175 3174 3173 3171 3171 3169 3168 3166 3165 3164 3163 3162 3161 3160 3159 3158 3157 3156 3156 3155 3155 3155 3154 3154 3153 3151 3150 3149 3148 3148 3147 3146 3146 3145 3144 3144 3143 3143 3142 3140 3139 3138 3136 3135 3134 3133 3132 3132 3131
3201 3201 3200 3200 3199 3199 3199 3198 3198 3197 3197 3196 3196 3196 3195 3194 3194 3193 3192 3192 3191 3190 3190 3189 3188 3188 3188 3187 3187 3186 3185 3184 3183 3182 3181 3180 3179 3177 3176 3175 3173 3172 3171 3170 3168 3167 3166 3164 3163 3162 3161 3160 3159 3158 3157 3156 3155 3155 3154 3153 3153 3152 3151 3151 3150 3149 3147 3146 3146 3145 3145 3144 3143 3142 3142 3142 3141 3139 3138 3137 3135 3134 3133 3131 3131 3131 3130 3129
3199 3199 3199 3199 3199 3198 3197 3197 3196 3196 3196 3195 3195 3194 3194 3193 3192 3191 3191 3190 3190 3189 3188 3188 3187 3186 3186 3185 3185 3184 3183 3183 3182 3181 3180 3179 3178 3177 3176 3174 3173 3171 3170 3169 3168 3166 3165 3164 3162 3161 3160 3159 3158 3157 3156 3155 3154 3153 3152 3152 3151 3150 3150 3149 3147 3146 3145 3145 3144 3143 3143 3141 3141 3141 3141 3140 3138 3137 3135 3134 3133 3132 3131 3130 3129 3129 3129 3127
3197 3198 3198 3198 3197 3197 3196 3196 3195 3195 3194 3194 3193 3193 3192 3191 3190 3190 3189 3189 3188 3187 3187 3186 3186 3185 3184 3184 3183 3183 3182 3181 3180 3180 3179 3178 3177 3176 3175 3173 3172 3171 3170 3169 3167 3166 3164 3163 3162 3160 3159 3158 3157 3156 3155 3154 3153 3152 3151 3150 3149 3148 3148 3147 3146 3145 3144 3143 3142 3142 3140 3138 3139 3140 3139 3138 3136 3135 3133 3132 3131 3130 3129 3127 3127 3126 3126 3124
3196 3196 3196 3196 3196 3195 3195 3194 3194 3193 3193 3193 3192 3191 3191 3190 3189 3188 3188 3188 3187 3186 3185 3185 3184 3183 3183 3182 3182 3181 3180 3180 3179 3178 3177 3177 3176 3175 3174 3173 3171 3170 3169 3168 3167 3165 3164 3162 3161 3160 3159 3158 3157 3156 3154 3153 3152 3151 3149 3148 3146 3146 3146 3145 3144 3143 3143 3142 3141 3140 3136 3134 3137 3137 3136 3136 3134 3133 3131 3130 3129 3127 3126 3124 3123 3122 3122 3120
3194 3194 3194 3194 3194 3194 3193 3193 3192 3192 3191 3191 3190 3189 3189 3188 3187 3187 3186 3186 3185 3185 3184 3183 3182 3181 3181 3181 3180 3179 3179 3178 3177 3176 3176 3175 3174 3174 3173 3172 3171 3170 3168 3167 3166 3165 3164 3162 3160 3159 3158 3157 3156 3155 3154 3152 3151 3150 3148 3146 3145 3144 3143 3143 3142 3141 3141 3140 3139 3138 3132 3130 3134 3134 3132 3132 3130 3129 3128 3127 3125 3123 3122 3120 3119 3118 3117 3116
3192 3192 3192 3192 3192 3192 3191 3191 3190 3190 3190 3189 3189 3188 3187 3187 3186 3185 3185 3184 3184 3183 3182 3181 3180 3179 3179 3178 3178 3177 3177 3176 3175 3175 3174 3173 3172 3172 3171 3170 3170 3168 3167 3166 3165 3164 3163 3162 3160 3158 3157 3155 3155 3154 3152 3151 3150 3149 3147 3145 3143 3141 3140 3140 3140 3139 3139 3138 3136 3135 3129 3126 3129 3130 3129 3128 3126 3125 3124 3122 3121 3119 3118 3116 3115 3115 3113 3112
3189 3190 3190 3190 3189 3189 3189 3188 3188 3188 3187 3187 3187 3186 3185 3185 3184 3183 3183 3182 3182 3181 3180 3179 3178 3177 3176 3176 3176 3175 3175 3174 3173 3173 3172 3171 3171 3170 3170 3169 3168 3167 3166 3165 3164 3162 3161 3160 3159 3157 3156 3154 3153 3152 3151 3150 3148 3147 3145 3143 3141 3139 3137 3137 3138 3137 3136 3135 3133 3132 3128 3124 3125 3126 3125 3124 3122 3121 3119 3118 3117 3115 3113 3112 3110 3110 3109 3107
3186 3187 3187 3187 3187 3186 3186 3186 3185 3185 3185 3185 3184 3184 3183 3183 3182 3182 3181 3180 3179 3179 3178 3177 3177 3175 3174 3173 3173 3173 3173 3172 3171 3170 3169 3169 3168 3168 3168 3167 3166 3166 3165 3163 3162 3161 3160 3159 3157 3156 3155 3153 3152 3151 3149 3148 3146 3145 3143 3142 3140 3138 3136 3134 3135 3135 3134 3132 3130 3129 3126 3123 3123 3122 3120 3119 3118 3117 3115 3114 3113 3111 3109 3107 3106 3105 3104 3102
3183 3184 3184 3184 3184 3184 3184 3183 3183 3182 3182 3182 3182 3181 3181 3180 3180 3179 3178 3178 3177 3177 3176 3175 3175 3173 3172 3172 3171 3170 3170 3169 3168 3167 3167 3166 3166 3166 3165 3165 3165 3164 3163 3162 3160 3159 3158 3157 3156 3155 3153 3151 3150 3149 3147 3146 3144 3143 3142 3140 3138 3137 3135 3133 3133 3132 3131 3129 3127 3125 3122 3120 3120 3119 3116 3115 3114 3112 3111 3110 3109 3107 3105 3104 3103 3102 3100 3098
3180 3181 3181 3181 3181 3181 3181 3181 3180 3180 3180 3179 3179 3178 3178 3177 3177 3176 3176 3176 3175 3175 3174 3173 3173 3171 3170 3169 3169 3168 3167 3166 3165 3164 3164 3163 3163 3163 3163 3163 3162 3162 3161 3160 3159 3157 3156 3155 3154 3153 3151 3150 3148 3147 3146 3144 3143 3141 3140 3139 3137 3135 3133 3132 3131 3130 3128 3125 3122 3121 3119 3117 3117 3116 3113 3111 3110 3108 3107 3106 3105 3103 3101 3101 3100 3098 3096 3094
3177 3178 3178 3178 3179 3178 3178 3178 3178 3177 3177 3177 3176 3176 3175 3175 3174 3173 3173 3173 3172 3172 3172 3171 3170 3169 3167 3167 3166 3165 3164 3163 3162 3161 3160 3160 3160 3161 3160 3161 3160 3159 3159 3158 3157 3156 3154 3153 3152 3150 3149 3148 3146 3145 3144 3142 3141 3140 3138 3137 3135 3133 3130 3129 3129 3128 3126 3121 3118 3117 3115 3113 3113 3112 3110 3108 3105 3104 3103 3102 3101 3099 3097 3097 3096 3094 3092 3091
3174 3175 3175 3175 3176 3176 3176 3175 3175 3174 3174 3174 3173 3173 3172 3171 3170 3169 3169 3170 3169 3169 3168 3168 3167 3165 3164 3164 3163 3162 3161 3160 3159 3158 3157 3157 3158 3158 3158 3158 3158 3157 3156 3155 3155 3154 3152 3151 3150 3148 3147 3146 3145 3144 3142 3141 3140 3138 3136 3134 3132 3130 3128 3127 3126 3124 3123 3118 3114 3113 3110 3108 3109 3108 3107 3104 3101 3099 3099 3098 3096 3094 3093 3092 3091 3089 3088 3088
3171 3171 3172 3172 3172 3172 3173 3173 3172 3171 3171 3171 3170 3170 3169 3168 3167 3166 3165 3164 3165 3165 3165 3164 3163 3162 3161 3160 3159 3158 3158 3157 3156 3155 3155 3155 3155 3155 3155 3156 3155 3155 3154 3153 3152 3151 3150 3149 3148 3147 3145 3144 3142 3141 3141 3140 3138 3136 3135 3132 3130 3128 3125 3123 3123 3121 3120 3115 3110 3108 3104 3103 3105 3105 3102 3098 3095 3095 3094 3093 3092 3090 3088 3087 3086 3086 3085 3084
3167 3167 3168 3168 3169 3169 3169 3169 3169 3168 3168 3168 3167 3167 3166 3165 3164 3163 3161 3159 3159 3161 3162 3161 3160 3159 3158 3156 3156 3155 3154 3154 3153 3152 3152 3152 3152 3153 3153 3153 3153 3152 3152 3151 3150 3149 3147 3146 3145 3144 3143 3142 3140 3139 3138 3137 3136 3134 3132 3130 3128 3127 3124 3120 3119 3118 3117 3113 3108 3103 3097 3096 3100 3100 3097 3094 3091 3091 3090 3088 3087 3085 3084 3083 3083 3082 3081 3080
3163 3164 3164 3165 3165 3165 3165 3165 3165 3165 3165 3165 3164 3163 3162 3161 3160 3159 3158 3156 3154 3156 3157 3157 3157 3155 3154 3153 3152 3152 3152 3152 3151 3150 3150 3150 3150 3151 3150 3150 3150 3149 3149 3148 3148 3146 3145 3144 3143 3142 3141 3139 3137 3136 3136 3135 3134 3132 3131 3129 3126 3125 3124 3119 3116 3114 3112 3111 3108 3102 3090 3084 3091 3093 3091 3091 3088 3087 3086 3083 3082 3081 3079 3079 3078 3078 3077 3077
3159 3160 3160 3161 3161 3161 3161 3161 3161 3161 3161 3161 3161 3160 3158 3157 3156 3155 3154 3151 3150 3151 3152 3152 3152 3151 3151 3150 3149 3149 3149 3149 3149 3148 3148 3148 3148 3148 3148 3148 3147 3146 3146 3145 3145 3143 3142 3142 3140 3139 3138 3136 3135 3134 3133 3132 3130 3129 3129 3127 3125 3123 3121 3118 3116 3112 3108 3106 3106 3105 3091 3077 3079 3085 3085 3085 3084 3082 3081 3077 3076 3076 3075 3074 3074 3072 3073 3072
3156 3156 3156 3157 3157 3157 3157 3156 3158 3158 3157 3157 3157 3157 3155 3154 3152 3151 3151 3148 3145 3147 3148 3147 3147 3147 3147 3147 3147 3147 3146 3146 3146 3146 3145 3145 3145 3145 3145 3144 3144 3143 3143 3142 3141 3139 3138 3139 3137 3136 3134 3133 3132 3131 3131 3129 3127 3126 3125 3125 3123 3121 3119 3116 3114 3111 3106 3102 3102 3106 3098 3080 3072 3077 3079 3078 3078 3077 3075 3072 3071 3071 3069 3069 3068 3067 3067 3067
3152 3152 3152 3153 3153 3153 3153 3153 3154 3153 3153 3154 3153 3153 3151 3150 3149 3148 3149 3146 3141 3142 3144 3143 3143 3144 3144 3144 3144 3144 3142 3142 3143 3142 3142 3142 3142 3142 3141 3141 3141 3140 3139 3139 3137 3135 3135 3135 3134 3133 3132 3130 3129 3129 3128 3127 3125 3123 3122 3123 3121 3119 3117 3114 3112 3110 3104 3100 3098 3099 3100 3087 3068 3066 3072 3072 3072 3071 3069 3067 3066 3065 3065 3064 3063 3062 3062 3062
3147 3148 3148 3148 3149 3149 3149 3149 3149 3149 3150 3150 3149 3149 3148 3147 3146 3146 3148 3144 3137 3138 3139 3139 3140 3140 3140 3140 3140 3140 3139 3139 3139 3138 3139 3140 3139 3139 3138 3138 3137 3136 3136 3135 3132 3131 3132 3132 3131 3130 3128 3127 3126 3126 3126 3124 3123 3121 3120 3120 3118 3117 3115 3111 3109 3106 3102 3098 3092 3089 3096 3090 3064 3057 3067 3067 3065 3065 3063 3062 3061 3060 3061 3059 3057 3057 3058 3057
3143 3143 3143 3144 3144 3145 3145 3145 3145 3146 3146 3146 3146 3145 3144 3144 3143 3144 3146 3141 3133 3133 3135 3135 3136 3136 3136 3136 3136 3136 3136 3136 3136 3135 3136 3136 3135 3136 3135 3134 3134 3132 3132 3130 3128 3128 3129 3128 3128 3126 3125 3124 3124 3123 3123 3122 3121 3119 3119 3117 3116 3115 3111 3109 3106 3102 3101 3097 3086 3082 3090 3087 3060 3050 3061 3063 3060 3060 3058 3057 3057 3055 3056 3053 3052 3054 3053 3052
3138 3138 3139 3139 3140 3140 3141 3140 3141 3141 3142 3142 3142 3141 3141 3141 3140 3143 3142 3135 3130 3129 3131 3131 3131 3131 3132 3132 3132 3132 3132 3132 3132 3132 3132 3132 3132 3132 3132 3131 3130 3129 3127 3126 3124 3124 3125 3125 3124 3123 3121 3121 3121 3120 3119 3120 3119 3117 3117 3114 3113 3112 3108 3106 3102 3100 3100 3090 3079 3078 3084 3084 3064 3047 3052 3057 3055 3055 3053 3052 3053 3052 3051 3049 3049 3050 3049 3048
3133 3133 3133 3134 3135 3136 3136 3136 3136 3137 3137 3138 3138 3138 3138 3137 3138 3139 3134 3128 3126 3125 3125 3127 3127 3127 3127 3127 3128 3128 3129 3129 3129 3128 3128 3128 3128 3128 3129 3128 3127 3125 3123 3122 3120 3119 3120 3120 3120 3119 3118 3118 3117 3117 3116 3117 3116 3115 3114 3112 3110 3107 3104 3102 3098 3099 3097 3083 3075 3076 3079 3080 3066 3045 3045 3051 3049 3049 3049 3047 3049 3048 3046 3046 3046 3046 3045 3043
3128 3128 3128 3129 3130 3131 3132 3132 3132 3133 3133 3134 3134 3133 3133 3134 3132 3128 3125 3125 3123 3119 3120 3122 3122 3123 3124 3123 3124 3125 3125 3125 3125 3125 3124 3124 3124 3124 3125 3125 3124 3123 3119 3117 3117 3115 3115 3115 3115 3114 3114 3114 3113 3113 3114 3113 3114 3113 3112 3112 3110 3106 3104 3100 3095 3094 3090 3079 3074 3076 3076 3072 3055 3042 3044 3047 3045 3045 3044 3043 3044 3043 3042 3042 3043 3042 3040 3038
3122 3123 3124 3124 3125 3126 3127 3127 3127 3128 3128 3129 3130 3129 3130 3128 3121 3116 3119 3123 3120 3116 3117 3119 3118 3119 3120 3119 3121 3121 3121 3121 3121 3121 3121 3120 3119 3120 3121 3121 3121 3121 3116 3114 3114 3112 3110 3109 3110 3110 3109 3110 3109 3109 3110 3110 3111 3111 3110 3110 3109 3108 3106 3099 3093 3089 3081 3075 3073 3075 3074 3062 3044 3038 3041 3041 3042 3042 3040 3040 3040 3038 3038 3039 3038 3037 3035 3033
3117 3118 3118 3119 3120 3122 3122 3123 3122 3123 3124 3124 3124 3124 3123 3118 3111 3110 3115 3116 3116 3114 3114 3116 3115 3116 3116 3115 3117 3117 3117 3118 3117 3117 3116 3115 3115 3114 3116 3116 3117 3116 3115 3113 3111 3109 3107 3104 3105 3106 3105 3105 3105 3106 3107 3106 3107 3107 3106 3108 3105 3106 3105 3097 3090 3086 3078 3072 3070 3071 3068 3052 3038 3035 3035 3038 3039 3038 3037 3037 3036 3034 3035 3035 3034 3033 3031 3029
3112 3112 3113 3114 3116 3117 3118 3118 3117 3118 3119 3118 3119 3117 3111 3105 3104 3107 3109 3111 3113 3112 3110 3112 3111 3111 3111 3111 3112 3113 3114 3114 3112 3112 3112 3110 3110 3109 3110 3111 3111 3112 3112 3110 3108 3105 3102 3099 3100 3101 3101 3102 3102 3102 3103 3103 3103 3103 3103 3103 3100 3099 3099 3094 3088 3083 3080 3076 3067 3062 3054 3041 3034 3030 3030 3035 3035 3033 3034 3032 3030 3030 3030 3031 3030 3028 3027 3025
3106 3107 3108 3109 3111 3113 3114 3113 3113 3114 3113 3113 3112 3103 3095 3095 3100 3103 3105 3107 3109 3109 3108 3107 3106 3106 3107 3106 3106 3108 3109 3109 3108 3108 3106 3105 3104 3103 3104 3105 3105 3106 3106 3106 3105 3102 3098 3095 3095 3097 3097 3098 3099 3099 3099 3100 3100 3099 3098 3097 3095 3094 3094 3091 3086 3081 3083 3079 3062 3052 3043 3033 3030 3024 3023 3030 3030 3028 3030 3026 3025 3026 3026 3026 3025 3023 3023 3021
3100 3101 3102 3103 3106 3109 3109 3108 3108 3108 3108 3108 3101 3089 3086 3091 3095 3099 3102 3103 3104 3105 3105 3103 3102 3102 3102 3100 3100 3103 3104 3104 3103 3102 3101 3101 3099 3096 3098 3099 3099 3100 3100 3101 3100 3098 3096 3091 3090 3093 3093 3093 3095 3094 3095 3095 3095 3095 3093 3092 3091 3091 3090 3089 3087 3081 3081 3077 3058 3047 3042 3031 3026 3020 3017 3023 3025 3023 3024 3021 3020 3022 3021 3021 3020 3019 3019 3017
3095 3094 3094 3097 3102 3104 3104 3103 3103 3102 3103 3099 3089 3082 3083 3086 3088 3094 3098 3099 3099 3100 3100 3099 3098 3098 3097 3096 3096 3098 3100 3099 3098 3097 3096 3096 3093 3091 3093 3094 3094 3095 3096 3098 3096 3095 3094 3089 3085 3087 3089 3089 3090 3090 3090 3090 3090 3090 3088 3088 3088 3088 3086 3085 3086 3080 3077 3072 3055 3044 3040 3025 3016 3016 3015 3018 3020 3019 3019 3016 3016 3018 3017 3016 3015 3015 3015 3013
3089 3087 3086 3092 3097 3099 3098 3098 3097 3098 3095 3086 3079 3077 3077 3078 3083 3089 3093 3095 3096 3095 3093 3092 3094 3094 3092 3092 3093 3094 3095 3093 3093 3093 3091 3090 3088 3086 3089 3090 3090 3091 3092 3094 3092 3091 3092 3088 3082 3081 3083 3085 3085 3085 3085 3084 3086 3086 3084 3084 3083 3082 3082 3080 3080 3077 3072 3067 3053 3045 3039 3018 3004 3010 3013 3013 3015 3016 3014 3012 3012 3013 3012 3011 3011 3011 3010 3009
3083 3081 3080 3085 3091 3092 3094 3093 3090 3088 3082 3074 3072 3072 3071 3074 3079 3083 3088 3090 3090 3089 3087 3087 3089 3089 3087 3088 3089 3090 3091 3089 3087 3088 3087 3085 3083 3082 3084 3085 3086 3088 3089 3089 3089 3088 3089 3086 3080 3077 3079 3079 3077 3078 3079 3080 3083 3081 3079 3079 3077 3077 3078 3074 3071 3069 3069 3066 3055 3048 3036 3009 2998 3008 3010 3009 3012 3011 3010 3009 3009 3009 3008 3007 3007 3007 3006 3005
3077 3074 3073 3078 3083 3086 3088 3085 3079 3077 3071 3066 3067 3068 3069 3071 3074 3076 3081 3084 3084 3084 3083 3083 3083 3083 3083 3084 3084 3085 3086 3084 3082 3083 3081 3079 3079 3078 3079 3081 3082 3085 3085 3085 3084 3084 3084 3081 3077 3074 3072 3071 3070 3072 3074 3075 3076 3074 3073 3072 3071 3073 3074 3072 3066 3060 3062 3060 3050 3048 3033 3000 2994 3006 3006 3006 3010 3008 3007 3006 3005 3005 3003 3002 3002 3002 3001 3001
3070 3068 3068 3072 3074 3078 3080 3076 3072 3069 3062 3058 3062 3064 3066 3066 3067 3070 3074 3077 3078 3078 3078 3077 3076 3077 3078 3078 3079 3081 3081 3079 3077 3077 3074 3073 3073 3074 3076 3078 3079 3079 3080 3080 3079 3080 3080 3078 3073 3069 3067 3066 3067 3068 3069 3070 3069 3068 3066 3065 3066 3068 3067 3067 3061 3053 3055 3052 3044 3048 3032 2994 2988 3001 3001 3002 3006 3003 3003 3003 3001 3000 2998 2998 2998 2997 2997 2996
3062 3063 3064 3065 3066 3069 3070 3066 3063 3060 3054 3054 3059 3061 3062 3061 3062 3064 3066 3069 3070 3071 3072 3070 3069 3071 3071 3073 3075 3075 3075 3074 3071 3069 3069 3068 3068 3070 3073 3074 3074 3075 3075 3074 3074 3075 3076 3073 3069 3065 3063 3064 3063 3063 3064 3064 3063 3061 3058 3058 3059 3058 3057 3058 3054 3050 3050 3043 3041 3048 3024 2987 2987 2998 2995 2998 3000 2998 2998 2997 2996 2996 2994 2993 2993 2992 2992 2992
3056 3058 3058 3058 3057 3057 3056 3054 3054 3051 3050 3053 3054 3054 3056 3056 3055 3056 3058 3060 3063 3064 3064 3063 3063 3065 3066 3068 3069 3069 3071 3070 3065 3064 3065 3064 3063 3065 3068 3069 3069 3069 3069 3068 3069 3071 3070 3068 3066 3064 3063 3061 3058 3057 3058 3057 3056 3053 3050 3051 3051 3050 3053 3052 3049 3050 3043 3033 3038 3038 3007 2983 2990 2995 2991 2994 2995 2993 2994 2993 2991 2991 2989 2989 2989 2988 2988 2987
3050 3049 3049 3048 3046 3044 3043 3045 3048 3048 3048 3049 3047 3047 3050 3049 3048 3050 3052 3053 3055 3057 3058 3058 3059 3061 3062 3063 3063 3063 3064 3063 3061 3060 3059 3058 3059 3060 3062 3063 3063 3062 3063 3064 3065 3065 3063 3062 3061 3060 3060 3057 3051 3049 3050 3050 3050 3046 3043 3044 3044 3045 3048 3045 3046 3046 3033 3026 3031 3019 2994 2985 2989 2989 2988 2989 2989 2988 2989 2988 2987 2987 2986 2985 2985 2984 2983 2983
3042 3040 3040 3038 3035 3033 3033 3038 3041 3040 3041 3042 3041 3042 3042 3039 3040 3045 3045 3045 3047 3050 3052 3052 3054 3056 3056 3057 3057 3057 3056 3057 3057 3055 3052 3053 3054 3055 3057 3057 3057 3057 3058 3059 3060 3059 3057 3054 3052 3051 3050 3048 3042 3042 3045 3046 3044 3040 3036 3037 3038 3038 3040 3041 3041 3033 3022 3025 3019 2998 2993 2991 2979 2981 2988 2985 2983 2984 2983 2983 2983 2982 2982 2981 2980 2980 2978 2978
3032 3028 3027 3028 3026 3024 3024 3027 3029 3029 3033 3036 3035 3034 3033 3031 3033 3036 3035 3036 3040 3044 3046 3046 3048 3048 3047 3049 3051 3050 3049 3051 3051 3048 3047 3049 3050 3051 3051 3050 3051 3052 3053 3054 3054 3053 3051 3046 3044 3044 3041 3039 3038 3039 3042 3041 3038 3034 3032 3031 3031 3032 3034 3033 3028 3018 3018 3025 3004 2983 2994 2992 2970 2975 2986 2981 2981 2982 2978 2979 2979 2977 2977 2976 2975 2975 2973 2973
3020 3015 3016 3019 3018 3014 3013 3015 3019 3023 3027 3028 3026 3026 3025 3023 3024 3023 3024 3029 3033 3037 3039 3038 3037 3037 3038 3043 3045 3044 3043 3044 3043 3042 3042 3044 3045 3046 3044 3043 3045 3045 3047 3049 3047 3047 3045 3039 3037 3038 3036 3033 3034 3035 3036 3035 3032 3029 3025 3024 3026 3027 3024 3020 3015 3010 3014 3014 2991 2979 2991 2984 2966 2972 2981 2977 2979 2978 2974 2976 2974 2971 2971 2969 2969 2969 2967 2967
3012 3008 3008 3008 3006 3005 3005 3008 3013 3017 3018 3018 3017 3016 3015 3012 3011 3012 3018 3023 3024 3026 3029 3027 3025 3027 3031 3036 3038 3036 3034 3034 3034 3035 3037 3038 3039 3039 3037 3038 3038 3039 3041 3041 3040 3042 3039 3033 3033 3034 3030 3027 3028 3030 3030 3029 3027 3021 3015 3017 3021 3018 3013 3012 3008 3004 3004 2999 2985 2981 2985 2971 2960 2969 2975 2973 2973 2972 2970 2970 2967 2965 2965 2964 2964 2964 2962 2962
3002 2999 2998 2997 2995 2997 3000 3002 3005 3005 3008 3011 3007 3002 3002 3002 3003 3006 3010 3013 3013 3015 3017 3016 3016 3021 3025 3028 3029 3024 3022 3025 3027 3029 3032 3033 3033 3033 3032 3031 3032 3033 3035 3034 3034 3036 3033 3028 3029 3029 3026 3022 3022 3024 3024 3022 3021 3014 3005 3007 3012 3009 3005 3005 3000 2994 2994 2988 2980 2981 2978 2961 2954 2964 2969 2966 2966 2965 2964 2963 2961 2960 2960 2959 2959 2958 2957 2957
2996 2995 2995 2992 2989 2991 2992 2993 2995 2995 2996 2997 2991 2988 2992 2994 2997 3001 3002 3002 3004 3005 3007 3008 3011 3017 3020 3021 3019 3012 3013 3020 3022 3024 3027 3027 3027 3028 3026 3026 3027 3028 3027 3027 3028 3028 3027 3024 3023 3025 3022 3016 3015 3018 3017 3015 3016 3006 2994 2994 2999 2998 2995 2993 2989 2985 2983 2979 2975 2977 2969 2954 2952 2961 2961 2958 2958 2957 2956 2956 2956 2955 2955 2955 2954 2953 2952 2952
2991 2990 2991 2989 2984 2984 2987 2987 2988 2984 2980 2978 2978 2981 2986 2987 2992 2998 2996 2994 2996 2998 3001 3004 3008 3012 3012 3009 3006 3005 3010 3017 3017 3018 3022 3021 3020 3022 3020 3020 3021 3021 3020 3021 3021 3020 3020 3018 3018 3020 3017 3011 3011 3012 3010 3013 3012 2994 2978 2980 2986 2986 2983 2982 2979 2975 2972 2972 2972 2967 2956 2950 2954 2957 2953 2951 2950 2949 2949 2951 2951 2950 2951 2950 2949 2947 2947 2947